Tracking 19575 objects as of 21-Feb-2019
HD Live streaming from Space Station
objects crossing your sky now

METEOR 2-17 DEB

Track METEOR 2-17 DEB now!
10-day predictions


NORAD ID: 35367
Int'l Code: 1988-005AB
Perigee: 916.3 km
Apogee: 948.2 km
Inclination: 82.5 °
Period: 103.5 minutes
Semi major axis: 7303 km
RCS: 0.003 m2 (small)
Launch date: January 30, 1988
Source: Commonwealth of Independent States (former USSR) (CIS)
Launch site: PLESETSK MISSILE AND SPACE COMPLEX (PKMTR)

Note: This is SATELLITE DEBRIS
aabbcc
Your satellite tracking list
Your tracking list is empty




NASA's NSSDC Master Catalog

Two Line Element Set (TLE):
1 35367U 88005AB  19050.95365942  .00000045  00000-0  23482-4 0  9995
2 35367  82.5216 271.0316 0021822  33.9107  31.9132 13.91002399809416
Source of the keplerian elements: AFSPC